Location: Holyhead Bay
(53.3667°N, 4.6667°W)
Time: 17:56:56
(UTC+00:00)

EP 1 - Pass Details

Date: 24 November 2020
Orbit: 314 x 1668 km, 63.3° (Epoch: 25 August)

Event Time Altitude Azimuth Distance (km) Brightness Sun altitude
Rises 17:09:37 0° 226° (SW) 2,292 10.0 -8.6°
Reaches altitude 10° 17:11:46 10° 226° (SW) 1,336 8.6 -8.9°
Maximum altitude 17:14:35 89° 145° (SE) 333 4.2 -9.3°
Enters shadow 17:16:43 14° 48° (NE) 1,021 6.1 -9.6°
